Weather History for KHNR - April, 2012

Change the Weather History Date:

Thursday, April 5, 2012

  Actual Average Record
Temperature  
Mean Temperature 55 °F -  
Max Temperature 64 °F 56 °F 86 °F (1991)
Min Temperature 46 °F 31 °F 15 °F (1968)
Degree Days  
Heating Degree Days 10    
Growing Degree Days 5 (Base 50)    
Moisture  
Dew Point 28 °F    
Average Humidity 36    
Maximum Humidity 58    
Minimum Humidity 24    
Precipitation  
Precipitation 0.00 in - - ()
Sea Level Pressure  
Sea Level Pressure 29.99 in    
Wind  
Wind Speed 11 mph (East)    
Max Wind Speed 16 mph    
Max Gust Speed 23 mph    
Visibility 10 miles    
Events      
Averages and records for this station are not official NWS values.
T = Trace of Precipitation, MM = Missing Value Source: NWS Daily Summary

Daily Weather History Graph

Daily Weather History Graph

Search for Another Location

Airport or City:

Trip Planner

Search our weather history database for the weather conditions in past years. The results will help you decide how hot, cold, wet, or windy it might be!

Date:

Astronomy

Apr. 05, 2012 Rise Set
Actual Time 6:56 AM CDT 7:51 PM CDT
Civil Twilight 6:28 AM CDT 8:19 PM CDT
Nautical Twilight 5:55 AM CDT 8:53 PM CDT
Astronomical Twilight 5:20 AM CDT 9:28 PM CDT
Moon 6:58 PM CDT (4/5) 5:54 AM CDT (4/5)
Length of Visible Light 13h 51m
Length of Day
12h 54m
Waxing Gibbous, 98% of the Moon is Illuminated
Apr 5
Waxing Gibbous
Apr 6
Full
Apr 13
Last Quarter
Apr 21
New
Apr 29
First Quarter

Hourly Weather History & Observations

Time (CDT) Temp. Windchill Dew Point Humidity Pressure Visibility Wind Dir Wind Speed Gust Speed Precip Events Conditions
12:15 AM 57.2 °F - 30.2 °F 36% 29.90 in 10.0 mi ENE 12.7 mph - N/A   Overcast
12:35 AM 57.2 °F - 30.2 °F 36% 29.90 in 10.0 mi ENE 12.7 mph - N/A   Overcast
12:55 AM 57.2 °F - 30.2 °F 36% 29.91 in 10.0 mi East 10.4 mph 18.4 mph N/A   Overcast
1:15 AM 57.2 °F - 32.0 °F 38% 29.91 in 10.0 mi East 11.5 mph 17.3 mph N/A   Overcast
1:35 AM 55.4 °F - 32.0 °F 41% 29.92 in 10.0 mi East 12.7 mph - N/A   Overcast
1:55 AM 55.4 °F - 32.0 °F 41% 29.92 in 10.0 mi East 10.4 mph - N/A   Overcast
2:15 AM 55.4 °F - 33.8 °F 44% 29.92 in 10.0 mi East 9.2 mph - N/A   Overcast
2:55 AM 51.8 °F - 35.6 °F 54% 29.93 in 10.0 mi SE 11.5 mph - N/A   Mostly Cloudy
3:15 AM 51.8 °F - 35.6 °F 54% 29.92 in 10.0 mi SE 8.1 mph - N/A   Overcast
3:35 AM 51.8 °F - 37.4 °F 58% 29.92 in 10.0 mi SE 6.9 mph - N/A   Mostly Cloudy
3:55 AM 51.8 °F - 35.6 °F 54% 29.92 in 10.0 mi ESE 4.6 mph - N/A   Clear
4:15 AM 50.0 °F - 35.6 °F 58% 29.92 in 10.0 mi ESE 3.5 mph - N/A   Clear
4:35 AM 51.8 °F - 28.4 °F 41% 29.92 in 10.0 mi East 9.2 mph - N/A   Clear
4:55 AM 50.0 °F - 26.6 °F 40% 29.92 in 10.0 mi East 10.4 mph - N/A   Clear
5:15 AM 50.0 °F - 23.0 °F 35% 29.93 in 10.0 mi East 8.1 mph - N/A   Clear
5:35 AM 48.2 °F - 19.4 °F 32% 29.93 in 10.0 mi ENE 8.1 mph - N/A   Scattered Clouds
5:55 AM 48.2 °F - 21.2 °F 34% 29.94 in 10.0 mi ENE 5.8 mph - N/A   Clear
6:15 AM 48.2 °F - 21.2 °F 34% 29.95 in 10.0 mi ENE 5.8 mph - N/A   Clear
6:35 AM 46.4 °F 42.9 °F 21.2 °F 37% 29.96 in 10.0 mi NE 6.9 mph - N/A   Clear
6:55 AM 46.4 °F 43.5 °F 24.8 °F 43% 29.96 in 10.0 mi NNE 5.8 mph - N/A   Clear
7:15 AM 46.4 °F 42.9 °F 23.0 °F 40% 29.97 in 10.0 mi ENE 6.9 mph - N/A   Scattered Clouds
7:35 AM 46.4 °F 42.4 °F 24.8 °F 43% 29.98 in 10.0 mi NE 8.1 mph - N/A   Scattered Clouds
7:55 AM 46.4 °F 42.9 °F 26.6 °F 46% 29.99 in 10.0 mi ENE 6.9 mph - N/A   Clear
8:15 AM 46.4 °F 42.4 °F 26.6 °F 46% 30.00 in 10.0 mi ENE 8.1 mph - N/A   Clear
8:35 AM 46.4 °F 41.1 °F 26.6 °F 46% 30.00 in 10.0 mi ENE 11.5 mph - N/A   Clear
8:55 AM 48.2 °F - 26.6 °F 43% 30.00 in 10.0 mi East 11.5 mph 16.1 mph N/A   Clear
9:15 AM 48.2 °F - 26.6 °F 43% 30.01 in 10.0 mi ENE 11.5 mph 18.4 mph N/A   Clear
9:35 AM 50.0 °F - 26.6 °F 40% 30.01 in 10.0 mi East 16.1 mph - N/A   Clear
9:55 AM 51.8 °F - 26.6 °F 38% 30.02 in 10.0 mi ENE 13.8 mph 18.4 mph N/A   Clear
10:15 AM 53.6 °F - 26.6 °F 35% 30.03 in 10.0 mi East 11.5 mph 17.3 mph N/A   Clear
10:35 AM 53.6 °F - 28.4 °F 38% 30.04 in 10.0 mi East 12.7 mph 17.3 mph N/A   Clear
10:55 AM 53.6 °F - 28.4 °F 38% 30.04 in 10.0 mi East 11.5 mph - N/A   Clear
11:15 AM 53.6 °F - 28.4 °F 38% 30.04 in 10.0 mi ENE 9.2 mph - N/A   Clear
11:35 AM 55.4 °F - 28.4 °F 36% 30.04 in 10.0 mi East 9.2 mph 17.3 mph N/A   Clear
11:55 AM 55.4 °F - 28.4 °F 36% 30.04 in 10.0 mi East 11.5 mph - N/A   Clear
12:15 PM 57.2 °F - 28.4 °F 33% 30.05 in 10.0 mi ENE 13.8 mph 18.4 mph N/A   Clear
12:35 PM 57.2 °F - 28.4 °F 33% 30.05 in 10.0 mi East 10.4 mph 16.1 mph N/A   Clear
12:55 PM 59.0 °F - 28.4 °F 31% 30.05 in 10.0 mi ENE 10.4 mph 18.4 mph N/A   Clear
1:15 PM 60.8 °F - 30.2 °F 31% 30.05 in 10.0 mi East 10.4 mph 16.1 mph N/A   Clear
1:35 PM 62.6 °F - 30.2 °F 30% 30.05 in 10.0 mi ENE 11.5 mph 23.0 mph N/A   Clear
1:55 PM 60.8 °F - 28.4 °F 29% 30.04 in 10.0 mi ENE 12.7 mph 19.6 mph N/A   Clear
2:15 PM 62.6 °F - 30.2 °F 30% 30.04 in 10.0 mi East 15.0 mph 20.7 mph N/A   Clear
2:35 PM 62.6 °F - 28.4 °F 27% 30.04 in 10.0 mi ESE 15.0 mph 19.6 mph N/A   Clear
2:55 PM 62.6 °F - 28.4 °F 27% 30.04 in 10.0 mi ENE 15.0 mph 20.7 mph N/A   Clear
3:15 PM 62.6 °F - 28.4 °F 27% 30.04 in 10.0 mi East 11.5 mph 16.1 mph N/A   Clear
3:35 PM 64.4 °F - 26.6 °F 24% 30.04 in 10.0 mi East 16.1 mph 20.7 mph N/A   Clear
3:55 PM 64.4 °F - 28.4 °F 26% 30.04 in 10.0 mi East 11.5 mph 21.9 mph N/A   Clear
4:15 PM 64.4 °F - 26.6 °F 24% 30.04 in 10.0 mi ESE 11.5 mph 19.6 mph N/A   Clear
4:35 PM 64.4 °F - 26.6 °F 24% 30.04 in 10.0 mi East 15.0 mph 20.7 mph N/A   Clear
4:55 PM 64.4 °F - 26.6 °F 24% 30.04 in 10.0 mi East 12.7 mph 18.4 mph N/A   Clear
5:15 PM 64.4 °F - 26.6 °F 24% 30.04 in 10.0 mi East 13.8 mph 17.3 mph N/A   Clear
5:35 PM 62.6 °F - 24.8 °F 24% 30.04 in 10.0 mi East 15.0 mph 18.4 mph N/A   Clear
5:55 PM 62.6 °F - 24.8 °F 24% 30.04 in 10.0 mi East 12.7 mph 21.9 mph N/A   Clear
6:15 PM 62.6 °F - 24.8 °F 24% 30.05 in 10.0 mi East 10.4 mph - N/A   Clear
6:35 PM 62.6 °F - 24.8 °F 24% 30.05 in 10.0 mi East 11.5 mph - N/A   Clear
6:55 PM 60.8 °F - 24.8 °F 25% 30.05 in 10.0 mi East 11.5 mph - N/A   Clear
7:15 PM 60.8 °F - 26.6 °F 27% 30.06 in 10.0 mi East 6.9 mph - N/A   Clear
7:35 PM 57.2 °F - 24.8 °F 29% 30.06 in 7.0 mi ESE 6.9 mph - N/A   Clear
7:55 PM 55.4 °F - 24.8 °F 31% 30.07 in 10.0 mi ESE 4.6 mph - N/A   Clear
8:15 PM 53.6 °F - 24.8 °F 33% 30.08 in 10.0 mi ESE 3.5 mph - N/A   Clear
8:35 PM 51.8 °F - 26.6 °F 38% 30.08 in 10.0 mi ESE 3.5 mph - N/A   Clear
8:55 PM 50.0 °F - 28.4 °F 43% 30.09 in 10.0 mi East 3.5 mph - N/A   Clear
9:15 PM 48.2 °F - 28.4 °F 46% 30.10 in 10.0 mi East 4.6 mph - N/A   Clear
9:35 PM 48.2 °F - 28.4 °F 46% 30.11 in 10.0 mi Calm Calm - N/A   Clear
9:55 PM 46.4 °F - 26.6 °F 46% 30.11 in 10.0 mi Calm Calm - N/A   Clear
10:15 PM 46.4 °F - 26.6 °F 46% 30.12 in 10.0 mi Calm Calm - N/A   Clear
10:35 PM 44.6 °F - 28.4 °F 53% 30.12 in 10.0 mi Calm Calm - N/A   Clear
10:55 PM 44.6 °F 41.4 °F 28.4 °F 53% 30.12 in 10.0 mi ESE 5.8 mph - N/A   Clear
11:15 PM 42.8 °F 41.1 °F 28.4 °F 57% 30.12 in 10.0 mi East 3.5 mph - N/A   Clear
11:35 PM 42.8 °F 40.1 °F 28.4 °F 57% 30.12 in 10.0 mi East 4.6 mph - N/A   Clear
11:55 PM 42.8 °F 39.3 °F 28.4 °F 57% 30.13 in 10.0 mi East 5.8 mph - N/A   Clear